Ely, MN

10:48 AM CDT on August 16, 2017 (GMT -0500)
Ely Municipal

Weather History for KELO - November, 2013

Change the Weather History Date:

Monday, November 11, 2013

  Actual Average Record
Temperature  
Mean Temperature 14 °F -  
Max Temperature 19 °F 35 °F 60 °F (2005)
Min Temperature 8 °F 22 °F 6 °F (2008)
Degree Days  
Heating Degree Days 52    
Moisture  
Dew Point 7 °F    
Average Humidity 71    
Maximum Humidity 92    
Minimum Humidity 53    
Precipitation  
Precipitation 0.00 in - - ()
Sea Level Pressure  
Sea Level Pressure 30.37 in    
Wind  
Wind Speed 10 mph (NW)    
Max Wind Speed 16 mph    
Max Gust Speed 26 mph    
Visibility 10 miles    
Events Snow    
Averages and records for this station are not official NWS values.
T = Trace of Precipitation, MM = Missing Value Source: NWS Daily Summary

Daily Weather History Graph

Daily Weather History Graph

Search for Another Location

Airport or City:

Trip Planner

Search our weather history database for the weather conditions in past years. The results will help you decide how hot, cold, wet, or windy it might be!

Date:

Astronomy

Nov. 11, 2013 Rise Set
Actual Time 7:07 AM CST 4:34 PM CST
Civil Twilight 6:34 AM CST 5:08 PM CST
Nautical Twilight 5:56 AM CST 5:45 PM CST
Astronomical Twilight 5:20 AM CST 6:21 PM CST
Moon 1:39 PM CST (11/11) 12:26 AM CST (11/11)
Length of Visible Light 10h 33m
Length of Day
9h 27m
Waxing Gibbous, 66% of the Moon is Illuminated
Nov 11
Waxing Gibbous
Nov 17
Full
Nov 25
Last Quarter
Dec 2
New
Dec 9
First Quarter

Hourly Weather History & Observations

Time (CST) Temp. Windchill Dew Point Humidity Pressure Visibility Wind Dir Wind Speed Gust Speed Precip Events Conditions
12:13 AM 15.8 °F 4.2 °F 10.4 °F 79% 30.11 in 10.0 mi NNW 9.2 mph 18.4 mph N/A   Scattered Clouds
12:29 AM 15.8 °F 1.4 °F 10.4 °F 79% 30.12 in 10.0 mi NNW 13.8 mph 20.7 mph N/A   Mostly Cloudy
12:53 AM 15.8 °F 0.9 °F 8.6 °F 73% 30.13 in 10.0 mi NNW 15.0 mph 20.7 mph N/A   Overcast
1:13 AM 15.8 °F 0.9 °F 8.6 °F 73% 30.14 in 10.0 mi NW 15.0 mph 21.9 mph N/A   Overcast
1:33 AM 15.8 °F 3.4 °F 8.6 °F 73% 30.14 in 10.0 mi NNW 10.4 mph 26.5 mph N/A Snow Light Snow
1:53 AM 15.8 °F 4.2 °F 8.6 °F 73% 30.15 in 10.0 mi NNW 9.2 mph 20.7 mph N/A Snow Light Snow
2:13 AM 15.8 °F 3.4 °F 8.6 °F 73% 30.15 in 10.0 mi NNW 10.4 mph 25.3 mph N/A Snow Light Snow
2:33 AM 15.8 °F 7.2 °F 8.6 °F 73% 30.16 in 10.0 mi NW 5.8 mph 19.6 mph N/A Snow Light Snow
2:53 AM 15.8 °F 4.2 °F 8.6 °F 73% 30.17 in 10.0 mi NW 9.2 mph - N/A   Overcast
3:13 AM 15.8 °F 6.1 °F 8.6 °F 73% 30.17 in 10.0 mi NNW 6.9 mph 17.3 mph N/A Snow Light Snow
3:32 AM 15.8 °F 3.4 °F 8.6 °F 73% 30.18 in 10.0 mi NW 10.4 mph - N/A   Overcast
3:53 AM 15.8 °F 1.4 °F 8.6 °F 73% 30.19 in 10.0 mi NW 13.8 mph 19.6 mph N/A   Overcast
4:13 AM 15.8 °F 3.4 °F 6.8 °F 68% 30.20 in 10.0 mi NW 10.4 mph 20.7 mph N/A   Overcast
4:32 AM 15.8 °F 5.1 °F 6.8 °F 68% 30.21 in 10.0 mi NW 8.1 mph 18.4 mph N/A   Scattered Clouds
4:53 AM 14.0 °F 2.0 °F 6.8 °F 73% 30.21 in 10.0 mi WNW 9.2 mph 16.1 mph N/A   Scattered Clouds
5:13 AM 14.0 °F 1.2 °F 6.8 °F 73% 30.22 in 10.0 mi NW 10.4 mph - N/A   Scattered Clouds
5:32 AM 12.2 °F 0.7 °F 6.8 °F 79% 30.23 in 10.0 mi NW 8.1 mph - N/A   Clear
5:53 AM 14.0 °F 2.0 °F 8.6 °F 79% 30.24 in 10.0 mi WNW 9.2 mph - N/A Snow Light Snow
6:13 AM 12.2 °F 1.7 °F 8.6 °F 85% 30.25 in 10.0 mi WNW 6.9 mph - N/A Snow Light Snow
6:32 AM 12.2 °F -0.2 °F 8.6 °F 85% 30.26 in 10.0 mi NW 9.2 mph - N/A   Scattered Clouds
6:53 AM 12.2 °F 0.7 °F 6.8 °F 79% 30.27 in 10.0 mi NW 8.1 mph - N/A   Clear
7:13 AM 12.2 °F 4.3 °F 8.6 °F 85% 30.28 in 10.0 mi NW 4.6 mph - N/A   Clear
7:32 AM 12.2 °F 1.7 °F 8.6 °F 85% 30.29 in 10.0 mi NW 6.9 mph - N/A   Clear
7:53 AM 12.2 °F 0.7 °F 8.6 °F 85% 30.30 in 10.0 mi NW 8.1 mph - N/A   Clear
8:13 AM 14.0 °F 2.9 °F 8.6 °F 79% 30.31 in 10.0 mi NW 8.1 mph - N/A   Clear
8:32 AM 15.8 °F 4.2 °F 8.6 °F 73% 30.32 in 10.0 mi NW 9.2 mph - N/A   Scattered Clouds
8:53 AM 15.8 °F 2.1 °F 6.8 °F 68% 30.32 in 10.0 mi NW 12.7 mph 19.6 mph N/A   Scattered Clouds
9:13 AM 15.8 °F 2.1 °F 6.8 °F 68% 30.32 in 10.0 mi NW 12.7 mph 23.0 mph N/A   Scattered Clouds
9:32 AM 15.8 °F 1.4 °F 6.8 °F 68% 30.33 in 10.0 mi NW 13.8 mph 23.0 mph N/A   Clear
9:53 AM 17.6 °F 4.3 °F 5.0 °F 58% 30.33 in 10.0 mi NW 12.7 mph 21.9 mph N/A   Clear
10:13 AM 17.6 °F 2.7 °F 3.2 °F 53% 30.34 in 10.0 mi NW 16.1 mph 20.7 mph N/A   Clear
10:32 AM 17.6 °F 3.7 °F 5.0 °F 58% 30.35 in 10.0 mi NNW 13.8 mph 23.0 mph N/A   Clear
10:53 AM 17.6 °F 4.3 °F 6.8 °F 63% 30.36 in 10.0 mi NW 12.7 mph 20.7 mph N/A   Scattered Clouds
11:13 AM 19.4 °F 8.6 °F 6.8 °F 58% 30.36 in 10.0 mi NW 9.2 mph 21.9 mph N/A   Mostly Cloudy
11:32 AM 17.6 °F 4.3 °F 6.8 °F 63% 30.36 in 10.0 mi NW 12.7 mph 25.3 mph N/A   Mostly Cloudy
11:53 AM 17.6 °F 6.4 °F 6.8 °F 63% 30.37 in 10.0 mi NW 9.2 mph 23.0 mph N/A   Mostly Cloudy
12:13 PM 19.4 °F 7.2 °F 8.6 °F 63% 30.37 in 10.0 mi WNW 11.5 mph 19.6 mph N/A   Overcast
12:32 PM 19.4 °F 7.2 °F 6.8 °F 58% 30.38 in 10.0 mi NW 11.5 mph 21.9 mph N/A   Mostly Cloudy
12:53 PM 17.6 °F 6.4 °F 6.8 °F 63% 30.39 in 10.0 mi WNW 9.2 mph - N/A   Overcast
1:13 PM 19.4 °F 7.9 °F 8.6 °F 63% 30.40 in 10.0 mi NNW 10.4 mph 17.3 mph N/A   Overcast
1:33 PM 17.6 °F 4.3 °F 6.8 °F 63% 30.40 in 10.0 mi NW 12.7 mph 18.4 mph N/A   Overcast
1:53 PM 19.4 °F 8.6 °F 6.8 °F 58% 30.41 in 10.0 mi WNW 9.2 mph - N/A   Overcast
2:12 PM 19.4 °F 7.9 °F 6.8 °F 58% 30.41 in 10.0 mi NW 10.4 mph 19.6 mph N/A   Overcast
2:33 PM 19.4 °F 7.9 °F 8.6 °F 63% 30.42 in 10.0 mi NW 10.4 mph 19.6 mph N/A   Overcast
2:53 PM 19.4 °F 6.6 °F 6.8 °F 58% 30.43 in 10.0 mi WNW 12.7 mph 21.9 mph N/A   Overcast
3:13 PM 19.4 °F 6.6 °F 6.8 °F 58% 30.43 in 10.0 mi WNW 12.7 mph 21.9 mph N/A   Overcast
3:32 PM 17.6 °F 5.0 °F 6.8 °F 63% 30.44 in 10.0 mi NW 11.5 mph 17.3 mph N/A   Overcast
3:53 PM 17.6 °F 5.0 °F 6.8 °F 63% 30.45 in 10.0 mi WNW 11.5 mph - N/A   Mostly Cloudy
4:13 PM 15.8 °F 4.2 °F 6.8 °F 68% 30.46 in 10.0 mi WNW 9.2 mph - N/A   Scattered Clouds
4:32 PM 15.8 °F 5.1 °F 6.8 °F 68% 30.47 in 10.0 mi NW 8.1 mph 16.1 mph N/A   Mostly Cloudy
4:53 PM 15.8 °F 5.1 °F 6.8 °F 68% 30.47 in 10.0 mi WNW 8.1 mph 18.4 mph N/A   Mostly Cloudy
5:12 PM 15.8 °F 6.1 °F 6.8 °F 68% 30.48 in 10.0 mi NW 6.9 mph - N/A   Mostly Cloudy
5:33 PM 15.8 °F 5.1 °F 8.6 °F 73% 30.49 in 10.0 mi WNW 8.1 mph - N/A Snow Light Snow
5:53 PM 15.8 °F 5.1 °F 8.6 °F 73% 30.50 in 10.0 mi WNW 8.1 mph - N/A   Overcast
6:12 PM 15.8 °F 6.1 °F 8.6 °F 73% 30.51 in 10.0 mi WNW 6.9 mph - N/A Snow Light Snow
6:33 PM 15.8 °F 3.4 °F 8.6 °F 73% 30.51 in 10.0 mi WNW 10.4 mph - N/A   Overcast
6:52 PM 15.8 °F 6.1 °F 6.8 °F 68% 30.52 in 10.0 mi NW 6.9 mph - N/A   Overcast
7:13 PM 15.8 °F 5.1 °F 6.8 °F 68% 30.53 in 10.0 mi NW 8.1 mph - N/A   Overcast
7:33 PM 14.0 °F 6.5 °F 8.6 °F 79% 30.54 in 10.0 mi NW 4.6 mph - N/A   Overcast
7:52 PM 14.0 °F 6.5 °F 6.8 °F 73% 30.54 in 10.0 mi NW 4.6 mph 16.1 mph N/A   Overcast
8:13 PM 12.2 °F 0.7 °F 3.2 °F 67% 30.54 in 10.0 mi NW 8.1 mph 20.7 mph N/A   Scattered Clouds
8:33 PM 12.2 °F -0.2 °F 3.2 °F 67% 30.54 in 10.0 mi NW 9.2 mph - N/A   Clear
8:52 PM 12.2 °F 2.9 °F 3.2 °F 67% 30.54 in 10.0 mi NW 5.8 mph - N/A   Clear
9:13 PM 12.2 °F 2.9 °F 5.0 °F 73% 30.55 in 10.0 mi NW 5.8 mph - N/A   Clear
9:32 PM 12.2 °F - 5.0 °F 73% 30.56 in 10.0 mi Calm Calm - N/A   Mostly Cloudy
9:53 PM 10.4 °F - 6.8 °F 85% 30.56 in 7.0 mi Calm Calm - N/A Snow Light Snow
10:13 PM 10.4 °F - 6.8 °F 85% 30.55 in 7.0 mi Calm Calm - N/A Snow Light Snow
10:33 PM 10.4 °F - 6.8 °F 85% 30.56 in 7.0 mi Calm Calm - N/A Snow Light Snow
10:53 PM 8.6 °F 2.0 °F 6.8 °F 92% 30.56 in 10.0 mi WNW 3.5 mph - N/A Snow Light Snow
11:13 PM 8.6 °F -1.3 °F 5.0 °F 85% 30.57 in 10.0 mi WNW 5.8 mph - N/A   Clear
11:33 PM 8.6 °F -3.7 °F 6.8 °F 92% 30.58 in 10.0 mi WNW 8.1 mph - N/A   Clear
11:53 PM 8.6 °F -1.3 °F 5.0 °F 85% 30.59 in 10.0 mi WNW 5.8 mph - N/A   Clear